User: anonymous   Login
Location: Ottawa
(45.4170°N, 75.7000°W)
Time: 10:06:05
(UTC-05:00)
Language:

Aureole 3 Rocket - Orbit

View from above orbital plane
View from above orbital plane
View from above satellite
View from above satellite

Ground track
Ground track

The orbit data is extracted from the following two-line orbital elements,

1 12849U 81094B   17349.66945828 +.00000314 +00000-0 +28874-4 0  9999
2 12849 082.4936 027.4745 0901406 287.0638 063.3759 13.50278887766439
Epoch (UTC): 15 December 2017 16:04:01
Eccentricity: 0.0901406
inclination: 82.4936°
perigee height: 400 km
apogee height: 1743 km
right ascension of ascending node: 27.4745°
argument of perigee: 287.0638°
revolutions per day: 13.50278887
mean anomaly at epoch: 63.3759°
orbit number at epoch: 76643

The dashed part of the orbit path shows where the satellite is in the earth's shadow,  

DLR